Location: A�t �Alizem
(31.2076°N, 8.7872°W)
Time: 05:35:40
(UTC+00:00)

Cosmos 1666 Rocket - Pass Details

Date: 27 November 2020
Orbit: 604 x 633 km, 82.5° (Epoch: 25 January)

Event Time Altitude Azimuth Distance (km) Brightness Sun altitude
Rises 18:10:32 0° 360° (N) 2,901 6.8 -8.3°
Reaches altitude 10° 18:12:49 10° 5° (N) 1,996 5.9 -8.8°
Maximum altitude 18:17:08 52° 82° (E) 782 3.7 -9.7°
Drops below altitude 10° 18:21:27 10° 159° (SSE) 1,999 6.2 -10.5°
Sets 18:23:44 0° 164° (SSE) 2,905 7.0 -11.0°
